Zurück zum Katalog

FENGYUN 1C DEB

AktivSSO
NORAD 29818·DEBRIS·🇨🇳 China

Gestartet May 10, 1999 von Taiyuan Satellite Launch Center

Loading…

Nächste Überflüge (nächste 24 Stunden)

TLE

AktuellSource: Space-Track

Epoche: Sep 14, 2026, 11:13 UTC

1 29818U 99025DL  26257.46753767  .00000191  00000-0  13771-3 0  9993
2 29818  98.6823 128.5355 0114146 331.3761 149.6752 14.04670914  6754

Verfolge FENGYUN 1C DEB in Echtzeit mit AllMySat

Download on the App Store